ATLAS 5 CENTAUR DEB, 44674

Orbit data source: Space-Track

ATLAS 5 CENTAUR DEB, 44674 is space debris in HEO originally from a launch on Wed, 17 Oct 2018 UTC launched from the Air Force Eastern Test Range (AFETR). Debris objects in space refer to the collection of defunct objects orbiting the Earth. Examples of debris include non-operational satellites, rocket bodies, and fragments generated from explosions, collisions, or faulty payload assembly.

Loading next visibility...
Identifier
44674, 2018-079AL
Orbit
HEO
Country
Flag of USUS
Related business
Flag of USUnited Launch Alliance/Lockheed Martin (US)
Manufacturer
ULA Decatur
Mission
Spacecraft
Bus & Motor
Unknown
Mass
Unknown
Launch date (UTC)
2018-10-17 (7 years ago)
Launch vehicle
Unknown
Launch site
Air Force Eastern Test Range (AFETR)
Object type
Payload
Rocket body
Debris
Shape & HBR
Unknown shape, 1.1 m
Radar Cross Section
RCS unknown

Expand to show TLE details & history
Last TLE update: 2 weeks ago

TLE from 2 weeks ago
0 ATLAS 5 CENTAUR DEB
1 44674U 18079AL  25277.44334094 -.00000106  00000-0  00000-0 0  9992
2 44674  12.6884  59.5192 4337876 289.7470  29.3711  1.93740895 44582
Epoch: 2025-10-04T10:38Z
TLE epoch observation values (Epoch: 2025-10-04T10:38:24.657Z)
Latitude
-0°
Longitude
-113.41901°
Altitude
12,839.028 km
Speed
5.179 km/s
True Right ascension
03h 58m 14s
True Declination
0° 00' 00"
Sunlit
Object was in daylight at epoch
Visualization orbit readout
Latitude
Unknown
Longitude
Unknown
Altitude
Unknown
Speed
Unknown
Apparent Right ascension
Unknown
Apparent Declination
Unknown
Sunlit
N/A
Visualization observer readout
Local Sidereal Time
15:01:43
Azimuth
Unknown
Elevation
Unknown
Doppler factor
Unknown
Orbital elements
Apogee altitude
32,595.616 km
Perigee altitude
9,012.861 km
Semi-major axis
27,182.375 km
Eccentricity
0.43379
Inclination
12.6884°
RAAN
59.5192°
Arg. of periapsis
289.747°
True anomaly
70.3504°
Mean anomaly
29.3711°
Eccentric anomaly
47.7763°
Mean motion
0.4843 °/min
Orbital period
743.35 mins
BSTAR
0
Loading maneuver chart data...
Computing Atmospheric mass density...

Documentation

Showing up to 5 results
|